Tampa Macdill AFB, FL

5:18 AM EDT on April 27, 2018 (GMT -0400)
MacDill Air Force Base

Weather History for KMCF - March, 2013

Change the Weather History Date:

Sunday, March 3, 2013

  Actual Average Record
Temperature  
Mean Temperature 47 °F -  
Max Temperature 53 °F 73 °F 87 °F (2002)
Min Temperature 41 °F 55 °F 40 °F (2009)
Degree Days  
Heating Degree Days 18    
Moisture  
Dew Point 34 °F    
Average Humidity 59    
Maximum Humidity 66    
Minimum Humidity 50    
Precipitation  
Precipitation 0.00 in - - ()
Sea Level Pressure  
Sea Level Pressure 30.09 in    
Wind  
Wind Speed 11 mph (North)    
Max Wind Speed 18 mph    
Max Gust Speed 25 mph    
Visibility 10 miles    
Events      
Averages and records for this station are not official NWS values.
T = Trace of Precipitation, MM = Missing Value Source: NWS Daily Summary

Daily Weather History Graph

Daily Weather History Graph

Search for Another Location

Airport or City:

Astronomy

Mar. 03, 2013 Rise Set
Actual Time 6:52 AM EST 6:31 PM EST
Civil Twilight 6:28 AM EST 6:55 PM EST
Nautical Twilight 6:01 AM EST 7:22 PM EST
Astronomical Twilight 5:34 AM EST 7:49 PM EST
Moon No Moon Rise 10:40 AM EST (3/3)
Length of Visible Light 12h 26m
Length of Day
11h 39m
Waning Gibbous, 64% of the Moon is Illuminated
Mar 3
Waning Gibbous
Mar 4
Last Quarter
Mar 11
New
Mar 19
First Quarter
Mar 27
Full

Hourly Weather History & Observations

Time (EST) Temp. Windchill Dew Point Humidity Pressure Visibility Wind Dir Wind Speed Gust Speed Precip Events Conditions
12:58 AM 51.8 °F - 37.4 °F 58% 30.02 in 10.0 mi North 16.1 mph 20.7 mph N/A   Clear
1:58 AM 46.4 °F 41.1 °F 32.0 °F 57% 30.03 in 10.0 mi NE 11.5 mph - N/A   Clear
2:58 AM 41.0 °F 35.8 °F 30.2 °F 65% 30.04 in 10.0 mi NNE 8.1 mph - N/A   Clear
3:58 AM 42.8 °F 38.6 °F 28.4 °F 57% 30.03 in 10.0 mi NE 6.9 mph - N/A   Overcast
4:58 AM 42.8 °F 38.0 °F 28.4 °F 57% 30.04 in 10.0 mi NE 8.1 mph - N/A   Overcast
5:58 AM 41.0 °F 38.0 °F 28.4 °F 61% 30.06 in 10.0 mi NE 4.6 mph - N/A   Overcast
6:58 AM 42.8 °F 39.3 °F 28.4 °F 57% 30.06 in 10.0 mi ENE 5.8 mph - N/A   Overcast
7:58 AM 42.8 °F 37.0 °F 26.6 °F 53% 30.07 in 10.0 mi NE 10.4 mph - N/A   Mostly Cloudy
8:58 AM 42.8 °F 37.0 °F 32.0 °F 66% 30.10 in 10.0 mi NE 10.4 mph - N/A   Overcast
9:58 AM 46.4 °F 44.3 °F 32.0 °F 57% 30.11 in 10.0 mi North 4.6 mph - N/A   Overcast
10:58 AM 50.0 °F - 32.0 °F 50% 30.12 in 10.0 mi North 9.2 mph - N/A   Overcast
11:58 AM 51.8 °F - 35.6 °F 54% 30.10 in 10.0 mi North 6.9 mph 16.1 mph N/A   Mostly Cloudy
12:58 PM 51.8 °F - 37.4 °F 58% 30.07 in 10.0 mi Variable 5.8 mph - N/A   Overcast
1:58 PM 53.6 °F - 37.4 °F 54% 30.06 in 10.0 mi NW 15.0 mph 24.2 mph N/A   Overcast
2:58 PM 53.6 °F - 37.4 °F 54% 30.06 in 10.0 mi NW 18.4 mph 24.2 mph N/A   Mostly Cloudy
3:58 PM 51.8 °F - 37.4 °F 58% 30.06 in 10.0 mi NNW 12.7 mph 24.2 mph N/A   Overcast
4:58 PM 51.8 °F - 37.4 °F 58% 30.07 in 10.0 mi NW 15.0 mph 23.0 mph N/A   Overcast
5:58 PM 51.8 °F - 35.6 °F 54% 30.09 in 10.0 mi NW 15.0 mph 25.3 mph N/A   Mostly Cloudy
6:58 PM 50.0 °F - 37.4 °F 62% 30.11 in 10.0 mi NNW 10.4 mph 19.6 mph N/A   Scattered Clouds
7:58 PM 48.2 °F - 37.4 °F 66% 30.13 in 10.0 mi NNW 12.7 mph 21.9 mph N/A   Scattered Clouds
8:58 PM 48.2 °F - 37.4 °F 66% 30.16 in 10.0 mi NNW 13.8 mph 18.4 mph N/A   Mostly Cloudy
9:58 PM 50.0 °F - 39.2 °F 66% 30.18 in 10.0 mi North 8.1 mph - N/A   Overcast
10:58 PM 50.0 °F - 39.2 °F 66% 30.18 in 10.0 mi NNW 9.2 mph - N/A   Overcast
11:58 PM 50.0 °F - 39.2 °F 66% 30.18 in 10.0 mi NNW 9.2 mph - N/A   Overcast